When you browse on this site, cookies collect data to enhance your experience and personalize the content and advertising you see.
Visit our Privacy Policy to learn more. By continuing to use the site, you agree to this use of cookies and data.
  • In United Kingdom
  • List of Countries
  • For 7 days
  • Water Temperature
  • Satellite Maps
  • Weather Map
  • Weather Widgets
  • user-avatar
    Login

    Hourly Weather Klagenfurt

    Today, 24 July, Wednesday

    Time Temperature Precipitation Wind Pressure Humidity
    00:00 +20°C° 0 mm 1 mps 694 mmHg 86%
    01:00 +17°C° 0 mm 0 mps 694 mmHg 88%
    02:00 +17°C° 0 mm 0 mps 693 mmHg 89%
    03:00 +16°C° 0 mm 0 mps 693 mmHg 90%
    04:00 +16°C° 0 mm 0 mps 693 mmHg 91%
    05:00 +18°C° 0 mm 0 mps 693 mmHg 87%
    06:00 +19°C° 0 mm 0 mps 693 mmHg 82%
    07:00 +20°C° 0 mm 0 mps 693 mmHg 78%
    08:00 +22°C° 0 mm 0 mps 694 mmHg 71%
    09:00 +24°C° 0 mm 0 mps 694 mmHg 64%
    10:00 +28°C° 0 mm 1 mps 694 mmHg 56%
    11:00 +29°C° 0 mm 1 mps 694 mmHg 54%
    12:00 +30°C° 0 mm 1 mps 694 mmHg 51%
    13:00 +31°C° 0 mm 1 mps 694 mmHg 48%
    14:00 +31°C° 0.3 mm 1 mps 694 mmHg 52%
    15:00 +30°C° 0.3 mm 1 mps 693 mmHg 56%
    16:00 +29°C° 0.3 mm 1 mps 693 mmHg 59%
    17:00 +28°C° 0.4 mm 1 mps 693 mmHg 67%
    18:00 +26°C° 0.4 mm 1 mps 693 mmHg 76%
    19:00 +24°C° 0.4 mm 1 mps 692 mmHg 84%
    20:00 +23°C° 0.1 mm 1 mps 693 mmHg 85%
    21:00 +22°C° 0.1 mm 1 mps 693 mmHg 87%
    22:00 +22°C° 0.1 mm 1 mps 693 mmHg 88%
    23:00 +21°C° 0 mm 1 mps 693 mmHg 89%

    Tomorrow, 25 July, Thursday

    Time Temperature Precipitation Wind Pressure Humidity
    00:00 +19°C° 0 mm 0 mps 693 mmHg 90%
    01:00 +18°C° 0 mm 0 mps 692 mmHg 91%
    02:00 +18°C° 0 mm 0 mps 692 mmHg 92%
    03:00 +18°C° 0 mm 0 mps 692 mmHg 92%
    04:00 +17°C° 0 mm 0 mps 692 mmHg 93%
    05:00 +19°C° 0 mm 0 mps 693 mmHg 90%
    06:00 +20°C° 0 mm 0 mps 693 mmHg 87%
    07:00 +21°C° 0 mm 0 mps 693 mmHg 85%
    08:00 +23°C° 0 mm 0 mps 694 mmHg 76%
    09:00 +27°C° 0 mm 1 mps 694 mmHg 68%
    10:00 +29°C° 0 mm 1 mps 694 mmHg 60%
    11:00 +29°C° 0.3 mm 1 mps 694 mmHg 61%
    12:00 +29°C° 0.3 mm 1 mps 694 mmHg 61%
    13:00 +30°C° 0.3 mm 1 mps 694 mmHg 62%
    14:00 +29°C° 0.9 mm 1 mps 693 mmHg 64%
    15:00 +29°C° 0.9 mm 1 mps 693 mmHg 67%
    16:00 +28°C° 0.9 mm 1 mps 692 mmHg 69%
    17:00 +27°C° 0.4 mm 1 mps 692 mmHg 75%
    18:00 +25°C° 0.4 mm 1 mps 692 mmHg 81%
    19:00 +24°C° 0.4 mm 1 mps 692 mmHg 86%
    20:00 +23°C° 0.3 mm 1 mps 692 mmHg 87%
    21:00 +22°C° 0.3 mm 1 mps 692 mmHg 88%
    22:00 +21°C° 0.3 mm 1 mps 692 mmHg 90%
    23:00 +21°C° 0.2 mm 1 mps 691 mmHg 90%

    Day after tomorrow, 26 July, Friday

    Time Temperature Precipitation Wind Pressure Humidity
    00:00 +19°C° 0.2 mm 0 mps 691 mmHg 91%
    01:00 +18°C° 0.2 mm 0 mps 691 mmHg 92%
    02:00 +18°C° 0 mm 0 mps 690 mmHg 92%
    03:00 +17°C° 0 mm 0 mps 690 mmHg 93%
    04:00 +17°C° 0 mm 0 mps 690 mmHg 93%
    05:00 +18°C° 0.4 mm 0 mps 690 mmHg 91%
    06:00 +20°C° 0.4 mm 0 mps 690 mmHg 89%
    07:00 +21°C° 0.4 mm 0 mps 690 mmHg 87%
    08:00 +23°C° 0.1 mm 0 mps 690 mmHg 78%
    09:00 +25°C° 0.1 mm 0 mps 690 mmHg 69%
    10:00 +28°C° 0.1 mm 1 mps 691 mmHg 60%
    11:00 +29°C° 0.7 mm 1 mps 690 mmHg 60%
    12:00 +29°C° 0.7 mm 1 mps 690 mmHg 61%
    13:00 +29°C° 0.7 mm 1 mps 689 mmHg 61%
    14:00 +28°C° 0.9 mm 1 mps 689 mmHg 63%
    15:00 +28°C° 0.9 mm 1 mps 689 mmHg 66%
    16:00 +27°C° 0.9 mm 1 mps 688 mmHg 68%
    17:00 +26°C° 0.7 mm 1 mps 688 mmHg 75%
    18:00 +24°C° 0.7 mm 1 mps 687 mmHg 82%
    19:00 +22°C° 0.7 mm 1 mps 687 mmHg 88%
    20:00 +22°C° 0.9 mm 1 mps 687 mmHg 90%
    21:00 +21°C° 0.9 mm 1 mps 687 mmHg 92%
    22:00 +20°C° 0.9 mm 1 mps 687 mmHg 94%
    23:00 +20°C° 0.3 mm 1 mps 686 mmHg 94%

    27 July, Saturday

    Time Temperature Precipitation Wind Pressure Humidity
    00:00 +17°C° 0.3 mm 0 mps 686 mmHg 93%
    01:00 +17°C° 0.3 mm 0 mps 686 mmHg 93%
    02:00 +16°C° 0.4 mm 0 mps 685 mmHg 94%
    03:00 +16°C° 0.4 mm 0 mps 685 mmHg 95%
    04:00 +15°C° 0.4 mm 0 mps 685 mmHg 96%
    05:00 +16°C° 0 mm 0 mps 685 mmHg 95%
    06:00 +17°C° 0 mm 0 mps 685 mmHg 94%
    07:00 +18°C° 0 mm 0 mps 685 mmHg 94%
    08:00 +19°C° 0.1 mm 0 mps 685 mmHg 89%
    09:00 +20°C° 0.1 mm 0 mps 685 mmHg 85%
    10:00 +21°C° 0.1 mm 0 mps 685 mmHg 81%
    11:00 +23°C° 0.4 mm 1 mps 685 mmHg 79%
    12:00 +23°C° 0.4 mm 1 mps 685 mmHg 77%
    13:00 +24°C° 0.4 mm 1 mps 685 mmHg 75%
    14:00 +23°C° 2 mm 1 mps 684 mmHg 80%
    15:00 +22°C° 2 mm 1 mps 684 mmHg 86%
    16:00 +21°C° 2 mm 1 mps 684 mmHg 91%
    17:00 +19°C° 0.6 mm 0 mps 683 mmHg 92%
    18:00 +19°C° 0.6 mm 0 mps 683 mmHg 94%
    19:00 +18°C° 0.6 mm 0 mps 683 mmHg 95%
    20:00 +17°C° 0.3 mm 0 mps 683 mmHg 95%
    21:00 +18°C° 0.3 mm 1 mps 683 mmHg 95%
    22:00 +18°C° 0.3 mm 1 mps 683 mmHg 96%
    23:00 +16°C° 0.7 mm 1 mps 683 mmHg 96%

    28 July, Sunday

    Time Temperature Precipitation Wind Pressure Humidity
    00:00 +16°C° 0.7 mm 1 mps 683 mmHg 95%
    01:00 +16°C° 0.7 mm 1 mps 682 mmHg 95%
    02:00 +16°C° 0.3 mm 1 mps 682 mmHg 96%
    03:00 +15°C° 0.3 mm 1 mps 682 mmHg 96%
    04:00 +14°C° 0.3 mm 0 mps 682 mmHg 97%
    05:00 +15°C° 0 mm 0 mps 682 mmHg 96%
    06:00 +16°C° 0 mm 0 mps 682 mmHg 95%
    07:00 +17°C° 0 mm 0 mps 683 mmHg 95%
    08:00 +18°C° 0.7 mm 0 mps 683 mmHg 91%
    09:00 +21°C° 0.7 mm 1 mps 683 mmHg 88%
    10:00 +22°C° 0.7 mm 1 mps 684 mmHg 84%
    11:00 +23°C° 1.6 mm 1 mps 684 mmHg 84%
    12:00 +23°C° 1.6 mm 1 mps 684 mmHg 84%
    13:00 +23°C° 1.6 mm 1 mps 683 mmHg 83%
    14:00 +23°C° 1.7 mm 1 mps 683 mmHg 84%
    15:00 +23°C° 1.7 mm 1 mps 683 mmHg 86%
    16:00 +23°C° 1.7 mm 1 mps 683 mmHg 87%
    17:00 +22°C° 1.4 mm 1 mps 684 mmHg 88%
    18:00 +19°C° 1.4 mm 0 mps 684 mmHg 90%
    19:00 +18°C° 1.4 mm 0 mps 684 mmHg 92%
    20:00 +17°C° 0.8 mm 0 mps 684 mmHg 92%
    21:00 +18°C° 0.8 mm 1 mps 684 mmHg 93%
    22:00 +18°C° 0.8 mm 1 mps 684 mmHg 94%
    23:00 +16°C° 0.1 mm 1 mps 684 mmHg 94%

    29 July, Monday

    Time Temperature Precipitation Wind Pressure Humidity
    00:00 +16°C° 0.1 mm 1 mps 684 mmHg 94%
    01:00 +15°C° 0.1 mm 1 mps 685 mmHg 94%
    02:00 +15°C° 0.1 mm 1 mps 685 mmHg 95%
    03:00 +15°C° 0.1 mm 1 mps 685 mmHg 95%
    04:00 +15°C° 0.1 mm 1 mps 685 mmHg 96%
    05:00 +16°C° 0.1 mm 1 mps 685 mmHg 95%
    06:00 +18°C° 0.1 mm 1 mps 686 mmHg 94%
    07:00 +19°C° 0.1 mm 1 mps 686 mmHg 93%
    08:00 +20°C° 0.1 mm 1 mps 687 mmHg 82%
    09:00 +21°C° 0.1 mm 2 mps 687 mmHg 70%
    10:00 +24°C° 0.1 mm 2 mps 688 mmHg 58%
    11:00 +25°C° 0 mm 2 mps 688 mmHg 53%
    12:00 +26°C° 0 mm 2 mps 688 mmHg 49%
    13:00 +27°C° 0 mm 2 mps 688 mmHg 44%
    14:00 +27°C° 0 mm 2 mps 688 mmHg 45%
    15:00 +27°C° 0 mm 2 mps 688 mmHg 46%
    16:00 +27°C° 0 mm 2 mps 688 mmHg 46%
    17:00 +26°C° 0 mm 2 mps 688 mmHg 55%
    18:00 +24°C° 0 mm 1 mps 688 mmHg 65%
    19:00 +22°C° 0 mm 1 mps 688 mmHg 74%
    20:00 +21°C° 0 mm 1 mps 688 mmHg 74%
    21:00 +20°C° 0 mm 1 mps 689 mmHg 73%
    22:00 +19°C° 0 mm 1 mps 689 mmHg 73%
    23:00 +19°C° 0 mm 1 mps 689 mmHg 75%
    Show more